[[{"header":{"parameterUnit":"m.s-1","parameterCategory":1,"la1":30.2991,"la2":30.254,"lo1":-89.0895,"lo2":-89.0444,"dy":0.0017,"dx":0.0017,"nx":28,"ny":28,"refTime":"2025-04-30T09:00:00:Z","depth":0,"parameterNumber":2,"parameterNumberName":"U-component_of_WINDS"},"data":[0,0,0,0,0,0,0,0,0,0,0,0,0,0,0,0,0,0,0,0,0,0,0,0,0,0,0,0,0,0,0,0,0,0,0,0,0,0,0,0,0,0,0,0,0,0,0,0,0,0,0,0,0,0,0,0,0,0,0.7053,0.7053,0,0.7052,0.7052,0.7052,0.7032,0.7032,0.7031,0.7031,0.7029,0.7029,0.703,0,0,0,0,0,0,0,0,0,0,0,0,0,0.7035,0.7035,0.7053,0.7053,0.7053,0.7052,0.7052,0.7052,0.7032,0.7032,0.7031,0.703,0.7029,0.7029,0.703,0,0,0,0,0,0,0,0,0,0,0,0,0,0.7039,0.7035,0.7053,0.7043,0.7042,0.7052,0.7052,0.7052,0.7032,0.7032,0.7031,0.703,0.7029,0.7029,0.703,0.705,0,0,0.7032,0.7032,0,0,0,0,0,0,0,0,0.7039,0.704,0.7044,0.7044,0.7043,0.7042,0.7045,0.7052,0.7033,0.7036,0.7031,0.703,0.7034,0.7034,0.7036,0.705,0.705,0.7032,0.7032,0.7033,0.7033,0,0,0,0,0,0,0,0.7039,0.704,0.7053,0.7044,0.7043,0.7038,0.7037,0.7046,0.7039,0.7036,0.7034,0.7034,0.7033,0.7035,0.7035,0.705,0.7032,0.7033,0.7033,0.7033,0.7078,0.7078,0,0,0,0,0,0,0.704,0.704,0.7053,0.7053,0.7039,0.7039,0.7038,0.7043,0.7039,0.7038,0.7035,0.7033,0.7034,0.7035,0.7035,0.7056,0.7033,0.7033,0.7034,0.7077,0.7078,0.7079,0,0,0,0,0,0,0.704,0.7041,0.7053,0.7046,0.7047,0.704,0.7045,0.7043,0.7045,0.7039,0.7037,0.7038,0.7034,0.7034,0.7046,0.7056,0.7034,0.7034,0.7076,0.7077,0.7078,0.71,0,0,0,0,0,0,0.7039,0.7041,0.7049,0.7046,0.7047,0.7064,0.7045,0.7044,0.7046,0.7044,0.7041,0.704,0.7033,0.7045,0.7047,0.7057,0.7035,0.7075,0.7077,0.7078,0.7099,0.7102,0.7105,0,0,0,0,0,0.7039,0.7056,0.705,0.7052,0.7057,0.7065,0.7065,0.7057,0.7047,0.7055,0.705,0.704,0.7055,0.7046,0.7048,0.7058,0.7074,0.7076,0.7078,0.7097,0.7101,0.7105,0,0,0,0,0,0,0.7061,0.7055,0.7049,0.7066,0.7066,0.7061,0.7071,0.7062,0.7065,0.7063,0.7052,0.7052,0.7065,0.7063,0.7053,0.7076,0.7063,0.7065,0.7077,0.7081,0.7084,0.7084,0.7035,0,0,0,0,0,0.7067,0.7075,0.7069,0.7085,0.7085,0.7078,0.7081,0.7074,0.7074,0.7074,0.7071,0.7071,0.7075,0.7078,0.7082,0.7099,0.7097,0.7106,0.711,0.7112,0.7114,0.7121,0.7124,0.7085,0.7084,0.7084,0,0,0.7082,0.7079,0.7085,0.7089,0.7088,0.7095,0.7078,0.7086,0.7091,0.7075,0.7085,0.7083,0.7082,0.7096,0.7102,0.7095,0.7125,0.7115,0.7117,0.7117,0.7123,0.7127,0.713,0.7086,0.7085,0.7085,0,0,0.711,0.711,0.7122,0.7121,0.7121,0.7116,0.7118,0.7115,0.7113,0.7123,0.7111,0.7116,0.7124,0.7123,0.7124,0.7151,0.7141,0.7153,0.7169,0.7176,0.7179,0.7181,0.7189,0.7192,0.7154,0.7154,0.7154,0,0.7128,0.7138,0.7129,0.7137,0.7139,0.7125,0.7136,0.7136,0.7137,0.7137,0.713,0.7139,0.7137,0.715,0.7156,0.7158,0.7159,0.7152,0.7179,0.7182,0.7184,0.7191,0.7195,0.7156,0.7156,0.7155,0.7155,0,0.7158,0.7165,0.7175,0.7175,0.7178,0.7188,0.7179,0.7183,0.7176,0.7171,0.7181,0.7179,0.7181,0.7184,0.7177,0.7195,0.719,0.7181,0.7167,0.7189,0.7196,0.7199,0.7158,0.7157,0.7157,0.7156,0,0,0.7201,0.7195,0.7199,0.7198,0.7196,0.72,0.7209,0.7211,0.7214,0.7214,0.722,0.7227,0.7218,0.7219,0.7212,0.7218,0.7237,0.7208,0.7208,0.7212,0.7254,0.726,0.7264,0.7231,0.7232,0.7232,0.7254,0,0.7227,0.7241,0.7233,0.7248,0.7253,0.724,0.7247,0.7246,0.7242,0.7245,0.724,0.7245,0.7233,0.7233,0.7239,0.7234,0.7245,0.7232,0.7235,0.7235,0.7235,0.7267,0.7274,0.7294,0.7256,0.7257,0.7257,0,0.7259,0.7261,0.7276,0.7271,0.7273,0.728,0.728,0.7284,0.7282,0.7278,0.7279,0.727,0.7277,0.7264,0.7272,0.7264,0.7264,0.7262,0.7263,0.7261,0.7247,0.7266,0.7301,0.7303,0.7262,0.7261,0.7261,0,0.7286,0.7292,0.7302,0.7302,0.7297,0.7302,0.73,0.7297,0.7298,0.7298,0.7299,0.73,0.73,0.7301,0.7293,0.7284,0.7302,0.7288,0.7298,0.7298,0.7301,0.7301,0.7335,0.7304,0.7304,0.7304,0.7304,0,0.7316,0.7325,0.7314,0.732,0.7329,0.732,0.733,0.7326,0.7323,0.7328,0.7316,0.732,0.731,0.7312,0.7306,0.7313,0.7313,0.731,0.7308,0.731,0.731,0.7309,0.7307,0.7305,0.7305,0.7304,0.7304,0,0.7347,0.734,0.7349,0.7343,0.7342,0.735,0.7344,0.7349,0.7343,0.7349,0.7349,0.7341,0.7343,0.7335,0.7336,0.7332,0.7342,0.7338,0.7342,0.7341,0.735,0.7348,0.7384,0.7387,0.7355,0.7356,0.7356,0,0.7366,0.7373,0.7367,0.7369,0.7368,0.7371,0.7372,0.7363,0.7364,0.7361,0.7366,0.7367,0.7368,0.7372,0.7365,0.7366,0.7361,0.7374,0.7361,0.7363,0.7359,0.7358,0.7358,0.7376,0.7376,0.7376,0.7377,0,0.7399,0.7394,0.7396,0.7397,0.7398,0.7398,0.7397,0.7399,0.7389,0.7391,0.7393,0.7393,0.7394,0.7395,0.7394,0.7391,0.7382,0.7381,0.7383,0.7384,0.7386,0.7384,0.7348,0.738,0.7379,0.7379,0.7379,0.7379,0.7423,0.7428,0.7424,0.7426,0.7424,0.7423,0.7427,0.7422,0.7424,0.7423,0.7418,0.742,0.7417,0.7414,0.7412,0.7414,0.7408,0.7411,0.7412,0.7412,0.7413,0.7387,0.7414,0.7414,0.7414,0.7414,0.7414,0,0.7454,0.745,0.7453,0.7451,0.7452,0.7444,0.7442,0.7444,0.7446,0.7444,0.7444,0.7446,0.7447,0.744,0.744,0.7442,0.7438,0.7442,0.7441,0.744,0.7419,0.7417,0.7446,0.7446,0.7446,0.7446,0.7446,0.7446,0.747,0.7477,0.7472,0.7477,0.7474,0.7477,0.7476,0.7475,0.7473,0.7475,0.7475,0.7471,0.7467,0.7466,0.7465,0.7463,0.7463,0.7469,0.7465,0.7445,0.7442,0.7439,0.7437,0.7469,0.7469,0.7486,0.7486,0.7486]},{"header":{"parameterUnit":"m.s-1","parameterCategory":1,"la1":30.2991,"la2":30.254,"lo1":-89.0895,"lo2":-89.0444,"dy":0.0017,"dx":0.0017,"nx":28,"ny":28,"refTime":"2025-04-30T09:00:00:Z","depth":0,"parameterNumber":3,"parameterNumberName":"V-component_of_WINDS"},"data":[0,0,0,0,0,0,0,0,0,0,0,0,0,0,0,0,0,0,0,0,0,0,0,0,0,0,0,0,0,0,0,0,0,0,0,0,0,0,0,0,0,0,0,0,0,0,0,0,0,0,0,0,0,0,0,0,0,0,4.8149,4.815,0,4.8261,4.8263,4.8264,4.8237,4.8235,4.8233,4.8231,4.8338,4.8342,4.8347,0,0,0,0,0,0,0,0,0,0,0,0,0,4.79,4.7905,4.8148,4.815,4.8151,4.8261,4.8263,4.8264,4.8237,4.8235,4.8232,4.823,4.8336,4.8342,4.8348,0,0,0,0,0,0,0,0,0,0,0,0,0,4.801,4.7906,4.8148,4.8151,4.8153,4.8261,4.8263,4.8265,4.8238,4.8235,4.8232,4.8229,4.8334,4.8341,4.8348,4.8458,0,0,4.8371,4.8374,0,0,0,0,0,0,0,0,4.8003,4.8019,4.815,4.8151,4.8153,4.8232,4.8214,4.8329,4.8239,4.8205,4.8231,4.8227,4.8305,4.8314,4.8342,4.8463,4.8467,4.8371,4.8376,4.8379,4.8381,0,0,0,0,0,0,0,4.7996,4.8014,4.8193,4.8151,4.8154,4.8144,4.8156,4.8236,4.8271,4.8208,4.8206,4.8221,4.8305,4.8335,4.8344,4.8469,4.8371,4.8378,4.8382,4.8385,4.868,4.8684,0,0,0,0,0,0,4.7988,4.8008,4.8189,4.8196,4.8069,4.8151,4.8165,4.821,4.8271,4.8277,4.8223,4.8219,4.8324,4.8336,4.8348,4.8477,4.8379,4.8386,4.839,4.8677,4.8681,4.8685,0,0,0,0,0,0,4.7983,4.8005,4.8185,4.8102,4.8124,4.8159,4.821,4.8214,4.8244,4.8282,4.8287,4.8248,4.8322,4.8338,4.843,4.848,4.8389,4.8395,4.8673,4.8678,4.8683,4.8737,0,0,0,0,0,0,4.7976,4.8003,4.8047,4.8103,4.8128,4.8268,4.8213,4.8218,4.8258,4.8253,4.8307,4.8313,4.8321,4.842,4.8437,4.8489,4.8401,4.8668,4.8675,4.8681,4.8731,4.8744,4.8755,0,0,0,0,0,4.7967,4.8057,4.805,4.8072,4.8185,4.8271,4.8285,4.8296,4.8262,4.8305,4.8329,4.8311,4.8473,4.8429,4.8449,4.8503,4.8665,4.8673,4.8681,4.8726,4.8741,4.8754,0,0,0,0,0,0,4.8003,4.8064,4.8057,4.8168,4.8215,4.8267,4.8321,4.8312,4.8367,4.836,4.8368,4.838,4.8474,4.8498,4.8449,4.861,4.8563,4.8576,4.8591,4.8606,4.8617,4.8608,4.8407,0,0,0,0,0,4.8025,4.8093,4.8141,4.8234,4.8259,4.8286,4.8324,4.8328,4.8376,4.8394,4.8425,4.847,4.853,4.857,4.8628,4.8735,4.8744,4.8782,4.8794,4.8803,4.8812,4.8867,4.8884,4.8711,4.8711,4.871,0,0,4.8068,4.811,4.8152,4.8243,4.828,4.8346,4.8303,4.8376,4.8424,4.8405,4.8494,4.8518,4.8568,4.8668,4.8713,4.869,4.8863,4.8813,4.882,4.8825,4.8877,4.8893,4.8908,4.8716,4.8715,4.8714,0,0,4.8182,4.8223,4.8303,4.8341,4.8398,4.8416,4.8435,4.8489,4.8504,4.8595,4.8581,4.8637,4.8742,4.8777,4.8809,4.8934,4.8918,4.8953,4.9013,4.9066,4.908,4.9092,4.9133,4.9148,4.8963,4.8963,4.8963,0,4.8228,4.8332,4.8345,4.8419,4.8457,4.8446,4.8525,4.856,4.8632,4.8657,4.8632,4.8762,4.8795,4.8901,4.8932,4.8959,4.8978,4.8946,4.9078,4.909,4.9101,4.914,4.9156,4.8967,4.8966,4.8966,4.8965,0,4.8384,4.8456,4.8513,4.8586,4.8631,4.8707,4.8728,4.8772,4.8771,4.879,4.888,4.892,4.8984,4.901,4.901,4.9115,4.9099,4.9076,4.9028,4.9121,4.9158,4.9173,4.8972,4.897,4.8969,4.8968,0,0,4.8522,4.8601,4.8622,4.8653,4.8715,4.8769,4.8843,4.8908,4.8944,4.8994,4.9053,4.9142,4.9121,4.9156,4.916,4.9208,4.93,4.9178,4.9179,4.9196,4.9414,4.9429,4.9446,4.9291,4.9294,4.9297,4.9409,0,4.8639,4.8773,4.8786,4.8905,4.8969,4.8958,4.9022,4.9064,4.9084,4.9138,4.9159,4.922,4.9189,4.921,4.9257,4.9279,4.9343,4.9271,4.9342,4.9345,4.9328,4.9466,4.9483,4.9587,4.9424,4.9426,4.9428,0,4.8793,4.8849,4.8975,4.9025,4.9053,4.9111,4.917,4.9224,4.9271,4.9281,4.9321,4.9318,4.939,4.9343,4.944,4.9391,4.9421,4.9436,4.944,4.9444,4.939,4.9471,4.9621,4.9635,4.9451,4.945,4.9448,0,4.8877,4.8984,4.9072,4.91,4.9162,4.9202,4.923,4.9274,4.9312,4.9363,4.9386,4.9445,4.9476,4.9519,4.953,4.9495,4.9627,4.9581,4.9634,4.9633,4.9659,4.9657,4.9812,4.9684,4.9684,4.9684,4.9684,0,4.9004,4.908,4.911,4.9164,4.9248,4.9261,4.9343,4.9367,4.9407,4.9462,4.9456,4.9508,4.9521,4.9574,4.9583,4.966,4.9675,4.9683,4.9683,4.9682,4.968,4.9699,4.9691,4.9688,4.9687,4.9686,4.9686,0,4.911,4.9135,4.923,4.9282,4.9296,4.9355,4.9398,4.9447,4.9466,4.9536,4.9553,4.9582,4.9644,4.966,4.9734,4.974,4.983,4.9826,4.9815,4.9813,4.9864,4.9858,5.0035,5.0057,4.9917,4.9919,4.992,0,4.9188,4.9247,4.9306,4.9344,4.9373,4.9435,4.9474,4.9488,4.9528,4.9585,4.9627,4.9689,4.9739,4.9838,4.9862,4.9918,4.9913,4.9971,4.9921,4.9916,4.9909,4.9904,4.9908,4.9979,4.9981,4.9982,4.9983,0,4.9323,4.9332,4.939,4.9451,4.9498,4.9547,4.9593,4.9624,4.9644,4.9689,4.9753,4.9792,4.9868,4.9928,4.9984,5.0008,4.9997,4.9999,5.0013,5.001,5.0,5.0003,4.9837,4.9994,4.9993,4.9992,4.9991,4.9991,4.9415,4.9466,4.9515,4.9578,4.9615,4.9658,4.9707,4.9733,4.9788,4.9852,4.9857,4.9925,4.9968,5.0042,5.007,5.0121,5.0103,5.0125,5.013,5.0135,5.0137,4.9995,5.0132,5.0132,5.0131,5.0131,5.0131,0,4.9546,4.9577,4.9636,4.9702,4.9751,4.9741,4.9791,4.9832,4.9893,4.9936,4.9985,5.0057,5.0115,5.0145,5.0201,5.0237,5.0233,5.0251,5.0246,5.0251,5.0152,5.0132,5.0253,5.0253,5.0252,5.0252,5.0252,5.0252,4.962,4.9704,4.9718,4.9819,4.9849,4.9918,4.9947,4.9986,5.0019,5.0101,5.015,5.017,5.0206,5.0265,5.0316,5.0323,5.0342,5.0362,5.0365,5.0271,5.0259,5.0247,5.0228,5.0367,5.0367,5.046,5.0461,5.0462]}]]